W1JCN Weather Reports


Display with metric or nautical units.
time (UTC)temp
F
wind
direction
speed
MPH
gust
MPH
rain 1hr
in
rain 24hr
in
rain mn
in
humidity
%
barometer
mb
20260510005359 44 212 0.0 3.0 0.00 0.15 0.15 95 1008.9
20260510004459 44 213 0.0 1.0 0.00 0.15 0.15 95 1008.8
20260510003559 44 0 0.0 0.0 0.00 0.15 0.15 95 1008.7
20260510002659 44 0 0.0 0.0 0.00 0.15 0.15 95 1008.6
20260510001759 44 213 0.0 2.0 0.00 0.15 0.15 94 1008.4
20260510000859 44 212 0.0 2.0 0.00 0.15 0.15 94 1008.4
20260509235959 44 211 0.0 2.0 0.00 0.15 0.15 94 1008.2
20260509235059 44 211 0.0 1.0 0.00 0.15 0.15 94 1008.1
20260509234159 44 0 0.0 0.0 0.00 0.15 0.15 94 1008.1
20260509233259 44 211 0.0 3.0 0.00 0.15 0.15 94 1008.0
20260509232400 44 210 0.0 2.0 0.00 0.15 0.15 95 1008.1
20260509231459 44 0 0.0 0.0 0.00 0.15 0.15 95 1008.0
20260509230559 45 211 0.0 1.0 0.00 0.15 0.15 95 1008.0
20260509225659 45 211 0.0 1.0 0.00 0.15 0.15 95 1008.0
20260509224759 44 211 0.0 1.0 0.00 0.15 0.15 95 1008.1
20260509223859 44 211 0.0 1.0 0.00 0.15 0.15 94 1008.1
20260509222959 44 211 0.0 2.0 0.01 0.15 0.15 94 1008.1
20260509222059 44 211 0.0 3.0 0.01 0.15 0.15 94 1008.0
20260509221159 44 210 0.0 1.0 0.01 0.15 0.15 94 1008.1
20260509220259 44 206 0.0 2.0 0.01 0.15 0.15 94 1008.2
20260509214459 44 0 0.0 0.0 0.01 0.15 0.15 94 1008.3
20260509213559 44 206 0.0 1.0 0.00 0.14 0.14 94 1008.4
20260509212659 44 206 0.0 3.0 0.01 0.14 0.14 94 1008.5
20260509211759 44 207 0.0 1.0 0.01 0.14 0.14 94 1008.5
20260509210859 45 207 0.0 3.0 0.01 0.14 0.14 94 1008.6
20260509205059 45 207 0.0 5.0 0.02 0.14 0.14 94 1008.6
20260509204159 45 207 1.0 5.0 0.02 0.14 0.14 94 1008.5
20260509203259 45 208 0.0 1.0 0.03 0.14 0.14 94 1008.6
20260509201458 45 208 0.0 2.0 0.03 0.13 0.13 94 1008.6
20260509195659 45 208 0.0 2.0 0.04 0.12 0.12 94 1008.9
20260509194759 45 208 0.0 2.0 0.04 0.12 0.12 94 1009.0
20260509193859 45 207 0.0 4.0 0.05 0.12 0.12 94 1009.0
20260509192959 44 206 0.0 2.0 0.04 0.11 0.11 94 1009.0
20260509192059 44 207 0.0 2.0 0.04 0.10 0.10 94 1009.1
20260509191158 44 205 0.0 4.0 0.04 0.10 0.10 94 1009.3
20260509190258 44 189 0.0 5.0 0.03 0.09 0.09 93 1009.3
20260509185359 44 146 0.0 2.0 0.03 0.08 0.08 94 1009.4
20260509183558 45 206 0.0 2.0 0.02 0.07 0.07 94 1009.5
20260509182658 45 205 1.0 5.0 0.03 0.07 0.07 94 1009.6
20260509181758 45 201 1.0 4.0 0.02 0.06 0.06 94 1009.5
20260509180858 45 200 0.0 3.0 0.03 0.06 0.06 94 1009.5
20260509175958 45 198 0.0 1.0 0.03 0.06 0.06 94 1009.5
20260509175058 45 198 0.0 4.0 0.03 0.05 0.05 94 1009.5
20260509174158 45 198 0.0 5.0 0.03 0.05 0.05 94 1009.7
20260509173258 45 197 0.0 5.0 0.02 0.04 0.04 94 1009.8
20260509172358 45 199 1.0 6.0 0.02 0.04 0.04 94 1009.9
20260509171458 45 199 0.0 3.0 0.01 0.03 0.04 94 1009.8
20260509164758 45 203 0.0 1.0 0.01 0.02 0.02 94 1010.1
20260509163858 44 201 0.0 4.0 0.01 0.02 0.02 94 1010.2
20260509162958 44 196 0.0 2.0 0.01 0.02 0.02 94 1010.3
20260509162058 44 199 0.0 3.0 0.02 0.02 0.02 93 1010.3
20260509161158 44 206 0.0 2.0 0.02 0.02 0.02 93 1010.5
20260509160258 44 0 0.0 0.0 0.02 0.02 0.02 93 1010.6
20260509154458 44 209 0.0 2.0 0.01 0.01 0.01 92 1010.7
20260509153558 44 210 0.0 4.0 0.01 0.01 0.01 92 1010.8
20260509152658 44 210 0.0 4.0 0.00 0.00 0.00 92 1010.9
20260509151758 45 210 0.0 4.0 0.00 0.00 0.00 92 1011.0
20260509145958 45 0 0.0 0.0 0.00 0.00 0.00 92 1010.9
20260509145058 45 0 0.0 0.0 0.00 0.00 0.00 91 1010.8
20260509144158 45 210 0.0 3.0 0.00 0.00 0.00 90 1010.8
20260509143258 45 210 0.0 3.0 0.00 0.00 0.00 90 1010.8
20260509142358 45 210 0.0 4.0 0.00 0.00 0.00 89 1010.9
20260509141458 45 210 0.0 4.0 0.00 0.00 0.00 89 1010.9
20260509140558 45 210 0.0 2.0 0.00 0.00 0.00 87 1011.0
20260509135658 45 210 0.0 1.0 0.00 0.00 0.00 85 1010.8
20260509134758 46 210 0.0 2.0 0.00 0.00 0.00 84 1010.9
20260509132958 46 170 0.0 4.0 0.00 0.00 0.00 79 1010.8
20260509132058 46 183 1.0 4.0 0.00 0.00 0.00 75 1010.7
20260509131158 46 197 0.0 2.0 0.00 0.00 0.00 75 1010.7
20260509130258 46 187 1.0 4.0 0.00 0.00 0.00 73 1010.7
20260509123558 44 197 1.0 4.0 0.00 0.00 0.00 75 1010.9
20260509122658 44 183 0.0 2.0 0.00 0.00 0.00 76 1011.1
20260509121758 43 190 0.0 2.0 0.00 0.00 0.00 78 1011.2
20260509120858 42 190 1.0 3.0 0.00 0.00 0.00 79 1011.3
20260509115958 41 181 1.0 4.0 0.00 0.00 0.00 82 1011.3
20260509114158 38 255 0.0 1.0 0.00 0.00 0.00 93 1011.2
20260509113258 37 0 0.0 0.0 0.00 0.00 0.00 93 1011.3
20260509112358 36 0 0.0 0.0 0.00 0.00 0.00 93 1011.3
20260509111458 35 0 0.0 0.0 0.00 0.00 0.00 93 1011.2
20260509110558 34 0 0.0 0.0 0.00 0.00 0.00 93 1011.2
20260509105658 34 0 0.0 0.0 0.00 0.00 0.00 93 1011.2
20260509104758 34 0 0.0 0.0 0.00 0.00 0.00 93 1011.2
20260509102958 33 0 0.0 0.0 0.00 0.00 0.00 93 1011.1
20260509102058 32 0 0.0 0.0 0.00 0.00 0.00 93 1011.0
20260509101157 32 0 0.0 0.0 0.00 0.00 0.00 93 1011.0
20260509100258 32 0 0.0 0.0 0.00 0.00 0.00 93 1011.1
20260509095357 31 0 0.0 0.0 0.00 0.00 0.00 93 1011.0
20260509094457 31 0 0.0 0.0 0.00 0.00 0.00 92 1010.9
20260509093557 31 0 0.0 0.0 0.00 0.00 0.00 92 1010.8
20260509092658 31 0 0.0 0.0 0.00 0.00 0.00 92 1010.7
20260509091757 30 0 0.0 0.0 0.00 0.00 0.00 92 1010.6
20260509090857 30 0 0.0 0.0 0.00 0.00 0.00 92 1010.5
20260509085957 30 0 0.0 0.0 0.00 0.00 0.00 92 1010.4
20260509082357 30 0 0.0 0.0 0.00 0.00 0.00 92 1010.1
20260509081457 30 0 0.0 0.0 0.00 0.00 0.00 91 1010.1
20260509080557 30 0 0.0 0.0 0.00 0.00 0.00 91 1010.1
20260509075657 30 0 0.0 0.0 0.00 0.00 0.00 91 1010.1
20260509074757 30 0 0.0 0.0 0.00 0.00 0.00 91 1010.2
20260509073857 30 0 0.0 0.0 0.00 0.00 0.00 91 1010.1
20260509072957 30 255 0.0 1.0 0.00 0.00 0.00 91 1010.1
20260509072057 30 0 0.0 0.0 0.00 0.00 0.00 90 1010.2
20260509071157 31 0 0.0 0.0 0.00 0.00 0.00 90 1010.2
20260509070257 31 0 0.0 0.0 0.00 0.00 0.00 90 1010.2
20260509065357 31 0 0.0 0.0 0.00 0.00 0.00 90 1010.4
20260509064457 31 0 0.0 0.0 0.00 0.00 0.00 90 1010.5
20260509063557 31 0 0.0 0.0 0.00 0.00 0.00 89 1010.4
20260509062657 32 0 0.0 0.0 0.00 0.00 0.00 89 1010.6
20260509055957 32 0 0.0 0.0 0.00 0.00 0.00 89 1010.6
20260509055057 32 0 0.0 0.0 0.00 0.00 0.00 88 1010.8
20260509053257 32 0 0.0 0.0 0.00 0.00 0.00 88 1010.6
20260509052357 33 0 0.0 0.0 0.00 0.00 0.00 88 1010.5
20260509051457 33 0 0.0 0.0 0.00 0.00 0.00 88 1010.5
20260509045657 33 0 0.0 0.0 0.00 0.00 0.00 87 1010.3
20260509044757 34 0 0.0 0.0 0.00 0.00 0.00 87 1010.3
20260509042957 34 0 0.0 0.0 0.00 0.00 0.00 86 1010.2
20260509042057 34 0 0.0 0.0 0.00 0.00 0.00 86 1010.2
20260509041157 35 0 0.0 0.0 0.00 0.00 0.00 86 1010.2
20260509040257 35 0 0.0 0.0 0.00 0.00 0.00 85 1010.2
20260509035357 35 0 0.0 0.0 0.00 0.00 0.00 85 1010.1
20260509034457 36 0 0.0 0.0 0.00 0.00 0.00 84 1010.1
20260509033557 36 0 0.0 0.0 0.00 0.00 0.00 84 1010.1
20260509032657 36 0 0.0 0.0 0.00 0.00 0.00 83 1010.0
20260509031757 36 0 0.0 0.0 0.00 0.00 0.00 83 1010.0
20260509025957 37 0 0.0 0.0 0.00 0.00 0.00 81 1009.8
20260509025057 38 0 0.0 0.0 0.00 0.00 0.00 81 1009.7
20260509024156 38 0 0.0 0.0 0.00 0.00 0.00 80 1009.6
20260509023257 39 0 0.0 0.0 0.00 0.00 0.00 79 1009.7
20260509022357 39 0 0.0 0.0 0.00 0.00 0.00 77 1009.6
20260509021457 40 0 0.0 0.0 0.00 0.00 0.00 76 1009.6
20260509020556 40 0 0.0 0.0 0.00 0.00 0.00 75 1009.5
20260509015657 41 0 0.0 0.0 0.00 0.00 0.00 75 1009.3
20260509014756 42 0 0.0 0.0 0.00 0.00 0.00 74 1009.3
20260509013856 42 0 0.0 0.0 0.00 0.00 0.00 73 1009.2
20260509012956 43 0 0.0 0.0 0.00 0.00 0.00 71 1009.1
20260509010256 44 0 0.0 0.0 0.00 0.00 0.00 69 1008.6